Погода в Казахдарье

Узбекистан     43°25′17″N   59°39′04″E
темп.,
°C
ветер,
м/с
пор.,
м/с
влажн.,
%
обл.,
%
осадки,
мм/ч
давл.,
гПа
погр.,
м
1 марта, пн
пн123:00+9ю57410 0.0 1016255
02:00+8ю564448 0.0 1016200
05:00+7ююз344336 0.0 1016166
08:00+6ссз2344100 0.0 1016154
11:00+8ссв6678100 0.0 1018518
14:00+7с558099 0.0 1019560
17:00+6с778294 0.0 1019637
20:00+5с5580100 0.0 1021587
2 марта, вт
вт223:00+5ссз5583100 0.1 1024526
02:00+4ссз5673100 0.1 1025711
05:00+4ссз557597 0.1 1025636
08:00+3сз557647 0.0 1026551
11:00+3сз447032 0.0 1028778
14:00+4ссз345951 0.0 1027963
17:00+5с446360 0.0 1026644
20:00+3ссв3369100 0.0 1027374
3 марта, ср
ср323:00+3юв216651 0.0 1027397
02:00+3ююв44720 0.0 1026337
05:00+3ю45740 0.0 1024256
08:00+3ю45700 0.0 1024254
11:00+6ююз56550 0.0 1024686
14:00+8ююз56470 0.0 10211271
17:00+10юз46450 0.0 10191723
20:00+10ююз355358 0.0 1018410
4 марта, чт
чт423:00+9зюз466075 0.0 1018838
02:00+7ююз127788 0.2 1016201
05:00+8юз487994 3.1 1015800
08:00+6з6792100 4.1 1015509
11:00+7зсз9107594 4.8 1017943
14:00+7зсз9106564 0.0 10191485
17:00+6зсз9106179 0.0 10211464
20:00+4зсз896444 0.0 10241223
5 марта, пт
пт523:00+3зсз786634 0.0 1027933
02:00+1зсз56670 0.0 1028649
05:00+1з44680 0.0 1029472
08:000з11660 0.0 1029339
11:00+2ююв34630 0.0 1030756
14:00+3ююв34420 0.0 1028924
17:00+5всв33390 0.0 1026691
20:00+5всв554649 0.0 1025642